This is the latest recevied weather packets stored in our database for station/object W3JGB. If no packets are shown the sender has not sent any weather packets the latest 10 day(s).
| Time | Temp. | Humidity | Pressure | Rain* | Wind** | Luminosity | Snow |
|---|---|---|---|---|---|---|---|
| 1777932062 | 22.78° C | 40% | 1005.8 hPa | 0 mm | - | 84 W/m² | - |
| 1777931758 | 22.78° C | 39% | 1005.9 hPa | 0 mm | - | 82 W/m² | - |
| 1777931456 | 23.33° C | 39% | 1005.9 hPa | 0 mm | - | 65 W/m² | - |
| 1777931151 | 23.89° C | 37% | 1006.1 hPa | 0 mm | - | 65 W/m² | - |
| 1777930848 | 23.89° C | 35% | 1005.9 hPa | 0 mm | - | 110 W/m² | - |
| 1777930544 | 23.89° C | 37% | 1005.9 hPa | 0 mm | - | 100 W/m² | - |
| 1777930242 | 24.44° C | 35% | 1006 hPa | 0 mm | - | 79 W/m² | - |
| 1777929937 | 25° C | 35% | 1005.9 hPa | 0 mm | - | 78 W/m² | - |
| 1777929635 | 25° C | 34% | 1005.7 hPa | 0 mm | - | 77 W/m² | - |
| 1777929332 | 25° C | 32% | 1006 hPa | 0 mm | - | 96 W/m² | - |
| 1777929029 | 25° C | 33% | 1006.1 hPa | 0 mm | - | 272 W/m² | - |
| 1777928726 | 25° C | 32% | 1006.3 hPa | 0 mm | - | 64 W/m² | - |
| 1777928422 | 25° C | 33% | 1006.1 hPa | 0 mm | - | 297 W/m² | - |
| 1777928120 | 25° C | 33% | 1006.2 hPa | 0 mm | - | 409 W/m² | - |
| 1777927818 | 25° C | 33% | 1006.2 hPa | 0 mm | - | 370 W/m² | - |
| 1777927516 | 25° C | 32% | 1006.6 hPa | 0 mm | - | 427 W/m² | - |
| 1777927215 | 25° C | 33% | 1006.1 hPa | 0 mm | - | 428 W/m² | - |
| 1777926912 | 24.44° C | 35% | 1006.3 hPa | 0 mm | - | 356 W/m² | - |
| 1777926609 | 24.44° C | 35% | 1006.4 hPa | 0 mm | - | 335 W/m² | - |
| 1777926305 | 24.44° C | 35% | 1006.3 hPa | 0 mm | - | 137 W/m² | - |
| 1777926001 | 24.44° C | 37% | 1006.5 hPa | 0 mm | - | 490 W/m² | - |
| 1777925699 | 25° C | 37% | 1006.6 hPa | 0 mm | - | 385 W/m² | - |
| 1777925396 | 23.89° C | 37% | 1006.6 hPa | 0 mm | - | 655 W/m² | - |
| 1777925093 | 23.89° C | 36% | 1006.8 hPa | 0 mm | - | 325 W/m² | - |
| 1777924789 | 23.89° C | 35% | 1007.1 hPa | 0 mm | - | 133 W/m² | - |
* Rain latest hour (hover to see other rain measurements)
** Current wind speed in m/s (hover to see current wind gust speed)